Powrót do katalogu

IRIDIUM 33 DEB

AktywnyPO
NORAD 46971·DEBRIS·🇺🇸 United States

Wystrzelony Sep 14, 1997 z Baikonur Cosmodrome

Loading…

Następne Przeloty (najbliższe 24 godziny)

TLE

Starzejące sięSource: Space-Track

Epoka: Sep 8, 2026, 03:01 UTC

1 46971U 97051ACD 26251.12637186  .00058748  00000-0  29133-2 0  9991
2 46971  86.3112 203.9900 0010170  69.6972 302.2384 15.17437417682896

Śledź IRIDIUM 33 DEB w czasie rzeczywistym z AllMySat

Download on the App Store